Date String (YYYY-MM-DD hh:mm:ss) UTC,Instrument flags,Ambient pressure (hPa),Sample flow (lpm),Bypass flow (lpm),Sample temperature (°C),Ambient temperature (°C),ASC tube jacket temperature (°C),LED temperature (°C),Box temperature (°C),Sample RH (%),Span deviation,Mass concentration (μg/m³),Mass concentration (μg/m³),Mass concentration (μg/m³)
DateTimeUTC,F1_M11,P_M11,Q1_M11,Q2_M11,T1_M11,T2_M11,T3_M11,T4_M11,T5_M11,U1_M11,ZSPAN_M11,X0_M11,X2_M11,X1_M11
2022-07-04 15:00:00,,0825.9,5.00,0.00,29.7,27.5,00.0,38.4,31.5,26.1,0000.0,0006.83,0003.36,0002.75
2022-07-04 15:01:00,,0826.0,5.00,0.00,29.7,27.5,00.0,38.4,31.4,26.7,0000.0,0007.19,0003.36,0002.79
2022-07-04 15:02:00,,0826.0,4.99,0.00,29.6,27.6,00.0,38.4,31.4,26.6,0000.0,0007.51,0003.39,0002.82
2022-07-04 15:03:00,,0826.0,5.00,0.00,29.6,27.8,00.0,38.4,31.4,27.0,0000.0,0007.91,0003.38,0002.84
2022-07-04 15:04:00,,0826.0,4.99,0.00,29.6,27.9,00.0,38.4,31.4,27.3,0000.0,0008.17,0003.43,0002.86
2022-07-04 15:05:00,,0826.0,5.00,0.00,29.6,28.1,00.0,38.4,31.4,26.8,0000.0,0007.95,0003.44,0002.88
2022-07-04 15:06:00,,0826.0,4.99,0.00,29.6,28.2,00.0,38.4,31.5,26.7,0000.0,0007.82,0003.44,0002.87
2022-07-04 15:07:00,,0826.0,5.00,0.00,29.6,28.3,00.0,38.4,31.5,27.0,0000.0,0007.99,0003.47,0002.89
2022-07-04 15:08:00,,0826.0,4.99,0.00,29.6,28.4,00.0,38.4,31.5,27.3,0000.0,0008.05,0003.50,0002.89
2022-07-04 15:09:00,,0826.0,5.03,0.00,29.7,28.5,00.0,38.4,31.6,26.5,0000.0,0008.10,0003.53,0002.91
2022-07-04 15:10:00,,0826.0,5.00,0.00,29.7,28.6,00.0,38.4,31.6,26.7,0000.0,0007.97,0003.50,0002.90
2022-07-04 15:11:00,,0826.0,5.00,0.00,29.7,28.7,00.0,38.4,31.7,26.7,0000.0,0007.78,0003.49,0002.92
2022-07-04 15:12:00,,0826.0,5.01,0.00,29.7,28.6,00.0,38.4,31.7,26.5,0000.0,0007.57,0003.51,0002.93
2022-07-04 15:13:00,,0826.0,5.00,0.00,29.7,27.9,00.0,38.4,31.6,26.7,0000.0,0007.37,0003.54,0002.94
2022-07-04 15:14:00,,0826.0,5.00,0.00,29.7,27.5,00.0,38.3,31.5,26.5,0000.0,0006.94,0003.57,0002.94
2022-07-04 15:15:00,,0826.0,5.00,0.00,29.7,27.4,00.0,38.3,31.4,26.2,0000.0,0006.41,0003.58,0002.94
2022-07-04 15:16:00,,0826.0,4.99,0.00,29.6,27.5,00.0,38.3,31.3,26.2,0000.0,0006.79,0003.57,0002.94
2022-07-04 15:17:00,,0826.0,5.00,0.00,29.6,27.6,00.0,38.3,31.3,26.2,0000.0,0007.56,0003.55,0002.94
2022-07-04 15:18:00,,0826.0,5.01,0.00,29.6,27.8,00.0,38.3,31.4,26.4,0000.0,0007.56,0003.57,0002.93
2022-07-04 15:19:00,,0826.0,5.01,0.00,29.6,27.9,00.0,38.3,31.4,25.9,0000.0,0007.62,0003.58,0002.92
2022-07-04 15:20:00,,0826.0,5.00,0.00,29.6,28.1,00.0,38.3,31.4,26.2,0000.0,0007.97,0003.63,0002.91
2022-07-04 15:21:00,,0826.0,5.01,0.00,29.6,28.2,00.0,38.3,31.4,26.2,0000.0,0008.26,0003.69,0002.90
2022-07-04 15:22:00,,0826.0,5.00,0.00,29.6,28.3,00.0,38.4,31.5,25.3,0000.0,0008.44,0003.71,0002.87
2022-07-04 15:23:00,,0826.0,4.99,0.00,29.6,28.4,00.0,38.4,31.5,25.5,0000.0,0008.75,0003.68,0002.83
2022-07-04 15:24:00,,0826.0,5.00,0.00,29.7,28.5,00.0,38.4,31.6,26.0,0000.0,0008.83,0003.65,0002.78
2022-07-04 15:25:00,,0825.9,5.00,0.00,29.7,28.6,00.0,38.4,31.6,25.7,0000.0,0008.85,0003.60,0002.74
2022-07-04 15:26:00,,0825.9,5.00,0.00,29.7,28.5,00.0,38.4,31.6,25.7,0000.0,0009.19,0003.56,0002.69
2022-07-04 15:27:00,,0826.0,5.00,0.00,29.7,27.8,00.0,38.3,31.5,25.7,0000.0,0009.83,0003.54,0002.66
2022-07-04 15:28:00,,0826.0,5.00,0.00,29.6,27.5,00.0,38.3,31.4,25.2,0000.0,0009.24,0003.53,0002.62
2022-07-04 15:29:00,,0826.0,5.00,0.00,29.6,27.4,00.0,38.3,31.4,24.7,0000.0,0009.14,0003.48,0002.56
2022-07-04 15:30:00,,0826.0,4.99,0.00,29.6,27.5,00.0,38.3,31.3,24.2,0000.0,0009.07,0003.46,0002.52
2022-07-04 15:31:00,,0825.9,4.99,0.00,29.5,27.7,00.0,38.3,31.3,25.1,0000.0,0008.79,0003.41,0002.48
2022-07-04 15:32:00,,0826.0,5.00,0.00,29.5,27.8,00.0,38.3,31.3,25.0,0000.0,0008.45,0003.33,0002.44
2022-07-04 15:33:00,,0826.0,5.01,0.00,29.5,28.0,00.0,38.3,31.4,25.1,0000.0,0008.58,0003.29,0002.40
2022-07-04 15:34:00,,0826.0,5.00,0.00,29.5,28.1,00.0,38.3,31.4,26.1,0000.0,0008.85,0003.29,0002.38
2022-07-04 15:35:00,,0826.0,4.99,0.00,29.6,28.2,00.0,38.3,31.5,24.7,0000.0,0008.70,0003.27,0002.37
2022-07-04 15:36:00,,0826.0,5.01,0.00,29.6,28.4,00.0,38.3,31.5,23.2,0000.0,0008.72,0003.29,0002.36
2022-07-04 15:37:00,,0826.0,5.00,0.00,29.6,28.5,00.0,38.3,31.5,25.4,0000.0,0008.59,0003.30,0002.35
2022-07-04 15:38:00,,0826.0,5.00,0.00,29.6,28.4,00.0,38.3,31.6,26.2,0000.0,0007.63,0003.31,0002.36
2022-07-04 15:39:00,,0826.0,5.00,0.00,29.6,27.8,00.0,38.3,31.5,25.8,0000.0,0007.53,0003.29,0002.36
2022-07-04 15:40:00,,0826.0,5.01,0.00,29.6,27.3,00.0,38.3,31.4,24.8,0000.0,0007.43,0003.28,0002.37
2022-07-04 15:41:00,,0826.0,5.01,0.00,29.5,27.2,00.0,38.2,31.3,25.1,0000.0,0007.42,0003.26,0002.39
2022-07-04 15:42:00,,0826.0,4.99,0.00,29.5,27.3,00.0,38.2,31.3,25.4,0000.0,0007.38,0003.25,0002.40
2022-07-04 15:43:00,,0826.0,5.00,0.00,29.5,27.5,00.0,38.2,31.2,26.6,0000.0,0007.32,0003.25,0002.42
2022-07-04 15:44:00,,0826.1,5.00,0.00,29.5,27.7,00.0,38.2,31.3,26.5,0000.0,0007.45,0003.25,0002.43
2022-07-04 15:45:00,,0826.1,5.00,0.00,29.5,27.8,00.0,38.2,31.3,25.6,0000.0,0006.86,0003.24,0002.44
2022-07-04 15:46:00,,0826.0,5.00,0.00,29.5,28.0,00.0,38.2,31.4,24.6,0000.0,0006.72,0003.24,0002.44
2022-07-04 15:47:00,,0826.1,5.01,0.00,29.5,28.1,00.0,38.2,31.4,25.3,0000.0,0006.32,0003.18,0002.44
2022-07-04 15:48:00,,0826.0,4.99,0.00,29.5,28.3,00.0,38.2,31.4,25.4,0000.0,0006.07,0003.14,0002.44
2022-07-04 15:49:00,,0826.0,5.01,0.00,29.5,28.4,00.0,38.3,31.5,24.9,0000.0,0005.84,0003.09,0002.41
2022-07-04 15:50:00,,0826.0,5.00,0.00,29.6,28.5,00.0,38.3,31.5,25.4,0000.0,0005.91,0003.10,0002.40
2022-07-04 15:51:00,,0826.0,5.01,0.00,29.6,28.0,00.0,38.2,31.5,25.1,0000.0,0006.09,0003.12,0002.39
2022-07-04 15:52:00,,0826.0,4.99,0.00,29.5,27.4,00.0,38.2,31.4,25.0,0000.0,0006.07,0003.12,0002.39
2022-07-04 15:53:00,,0826.0,5.01,0.00,29.5,27.2,00.0,38.2,31.3,24.9,0000.0,0006.28,0003.13,0002.38
2022-07-04 15:54:00,,0826.0,5.00,0.00,29.5,27.3,00.0,38.2,31.2,24.8,0000.0,0006.76,0003.13,0002.36
2022-07-04 15:55:00,,0826.0,4.99,0.00,29.4,27.5,00.0,38.2,31.2,24.8,0000.0,0006.69,0003.15,0002.37
2022-07-04 15:56:00,,0826.0,5.01,0.00,29.4,27.6,00.0,38.2,31.3,24.8,0000.0,0006.85,0003.16,0002.39
2022-07-04 15:57:00,,0826.0,5.00,0.00,29.4,27.8,00.0,38.2,31.3,25.1,0000.0,0007.15,0003.19,0002.41
2022-07-04 15:58:00,,0826.0,4.99,0.00,29.4,27.9,00.0,38.2,31.3,24.9,0000.0,0007.44,0003.23,0002.43
2022-07-04 15:59:00,,0826.0,4.99,0.00,29.5,28.1,00.0,38.2,31.4,26.4,0000.0,0007.70,0003.29,0002.47
